Glencoe, MN

3:52 PM CST on December 15, 2017 (GMT -0600)
Glencoe Municipal

Weather History for KGYL - April, 2014

Change the Weather History Date:

Tuesday, April 8, 2014

  Actual Average (KHCD) Record (KHCD)
Temperature  
Mean Temperature 42 °F -  
Max Temperature 51 °F 52 °F 78 °F (1988)
Min Temperature 34 °F 32 °F 15 °F (1989)
Degree Days  
Heating Degree Days 22    
Moisture  
Dew Point 30 °F    
Average Humidity 63    
Maximum Humidity 80    
Minimum Humidity 38    
Precipitation  
Precipitation 0.00 in - - ()
Sea Level Pressure  
Sea Level Pressure 29.94 in    
Wind  
Wind Speed 10 mph (NW)    
Max Wind Speed 17 mph    
Max Gust Speed 24 mph    
Visibility 10 miles    
Events      
Averages and records for this station are not official NWS values.
T = Trace of Precipitation, MM = Missing Value Source: NWS Daily Summary

Daily Weather History Graph

Daily Weather History Graph

Search for Another Location

Airport or City:

Trip Planner

Search our weather history database for the weather conditions in past years. The results will help you decide how hot, cold, wet, or windy it might be!

Date:

Astronomy

Apr. 08, 2014 Rise Set
Actual Time 6:44 AM CDT 7:52 PM CDT
Civil Twilight 6:14 AM CDT 8:22 PM CDT
Nautical Twilight 5:38 AM CDT 8:58 PM CDT
Astronomical Twilight 5:00 AM CDT 9:36 PM CDT
Moon 1:32 PM CDT (4/8) 3:12 AM CDT (4/8)
Length of Visible Light 14h 08m
Length of Day
13h 08m
Waxing Gibbous, 63% of the Moon is Illuminated
Apr 8
Waxing Gibbous
Apr 15
Full
Apr 22
Last Quarter
Apr 29
New
May 6
First Quarter

Hourly Weather History & Observations

Time (CDT) Temp. Windchill Dew Point Humidity Pressure Visibility Wind Dir Wind Speed Gust Speed Precip Events Conditions
12:12 AM 41.9 °F 35.9 °F 32.0 °F 68% 29.84 in 10.0 mi WNW 10.4 mph - N/A   Clear
12:33 AM 41.4 °F 34.7 °F 32.0 °F 69% 29.84 in 10.0 mi WNW 11.5 mph - N/A   Clear
12:52 AM 40.8 °F 34.1 °F 32.0 °F 71% 29.84 in 10.0 mi WNW 11.5 mph - N/A   Clear
1:13 AM 40.1 °F 34.1 °F 32.0 °F 73% 29.84 in 10.0 mi WNW 9.2 mph - N/A   Clear
1:32 AM 39.6 °F 33.0 °F 31.8 °F 74% 29.84 in 10.0 mi WNW 10.4 mph - N/A   Clear
1:53 AM 39.2 °F 32.5 °F 31.6 °F 74% 29.85 in 10.0 mi WNW 10.4 mph - N/A   Clear
2:13 AM 39.2 °F 33.0 °F 31.1 °F 73% 29.84 in 10.0 mi WNW 9.2 mph - N/A   Clear
2:32 AM 38.7 °F 32.4 °F 30.7 °F 73% 29.84 in 10.0 mi WNW 9.2 mph - N/A   Scattered Clouds
2:53 AM 38.3 °F 31.9 °F 29.7 °F 71% 29.84 in 10.0 mi NW 9.2 mph - N/A   Scattered Clouds
3:12 AM 37.9 °F 32.1 °F 28.9 °F 70% 29.85 in 10.0 mi NW 8.1 mph - N/A   Clear
3:33 AM 37.2 °F 30.0 °F 28.6 °F 71% 29.85 in 10.0 mi NW 10.4 mph - N/A   Clear
3:52 AM 37.0 °F 29.8 °F 28.4 °F 71% 29.85 in 10.0 mi NW 10.4 mph - N/A   Clear
4:13 AM 36.9 °F 30.1 °F 28.0 °F 70% 29.85 in 10.0 mi NNW 9.2 mph - N/A   Clear
4:32 AM 36.7 °F 29.4 °F 27.5 °F 69% 29.86 in 10.0 mi NW 10.4 mph - N/A   Clear
4:53 AM 36.5 °F 29.7 °F 27.3 °F 69% 29.87 in 10.0 mi NW 9.2 mph - N/A   Clear
5:11 AM 36.0 °F 29.6 °F 27.5 °F 71% 29.87 in 10.0 mi NW 8.1 mph - N/A   Clear
5:33 AM 35.6 °F 29.2 °F 27.3 °F 72% 29.89 in 10.0 mi WNW 8.1 mph - N/A   Clear
5:52 AM 35.2 °F 28.1 °F 27.5 °F 73% 29.90 in 10.0 mi WNW 9.2 mph - N/A   Clear
6:13 AM 35.4 °F 28.4 °F 27.7 °F 73% 29.90 in 10.0 mi WNW 9.2 mph - N/A   Clear
6:33 AM 35.1 °F 27.4 °F 28.4 °F 77% 29.90 in 10.0 mi WNW 10.4 mph - N/A   Clear
6:53 AM 34.9 °F 27.1 °F 29.3 °F 80% 29.91 in 10.0 mi NW 10.4 mph - N/A   Clear
7:13 AM 35.1 °F 26.9 °F 29.5 °F 80% 29.92 in 10.0 mi NW 11.5 mph 17.3 mph N/A   Clear
7:33 AM 35.2 °F 26.2 °F 29.7 °F 80% 29.93 in 10.0 mi WNW 13.8 mph 19.6 mph N/A   Clear
7:53 AM 35.8 °F 27.3 °F 29.8 °F 79% 29.93 in 10.0 mi NW 12.7 mph 18.4 mph N/A   Clear
8:13 AM 36.5 °F 28.7 °F 30.2 °F 78% 29.94 in 10.0 mi WNW 11.5 mph 18.4 mph N/A   Clear
8:33 AM 37.0 °F 28.9 °F 30.6 °F 77% 29.95 in 10.0 mi NW 12.7 mph - N/A   Clear
8:53 AM 38.3 °F 30.1 °F 30.7 °F 74% 29.95 in 10.0 mi NW 13.8 mph 20.7 mph N/A   Clear
9:12 AM 38.7 °F 30.9 °F 30.7 °F 73% 29.96 in 10.0 mi NW 12.7 mph 20.7 mph N/A   Scattered Clouds
9:33 AM 39.7 °F 30.9 °F 30.9 °F 71% 29.96 in 10.0 mi NNW 17.3 mph 20.7 mph N/A   Clear
9:52 AM 40.5 °F 32.8 °F 31.3 °F 70% 29.97 in 10.0 mi NW 13.8 mph 19.6 mph N/A   Scattered Clouds
10:13 AM 41.0 °F 32.8 °F 31.5 °F 69% 29.98 in 10.0 mi NNW 16.1 mph 21.9 mph N/A   Scattered Clouds
10:33 AM 42.4 °F 34.7 °F 32.0 °F 67% 29.99 in 10.0 mi NW 16.1 mph 20.7 mph N/A   Clear
10:53 AM 43.0 °F 36.8 °F 32.0 °F 65% 29.99 in 10.0 mi NW 11.5 mph 17.3 mph N/A   Clear
11:13 AM 44.4 °F 38.2 °F 32.0 °F 62% 29.99 in 10.0 mi NNW 12.7 mph - N/A   Clear
11:33 AM 45.0 °F 37.9 °F 32.5 °F 62% 30.00 in 10.0 mi NW 16.1 mph 20.7 mph N/A   Clear
11:53 AM 46.2 °F 39.8 °F 32.7 °F 59% 30.00 in 10.0 mi NW 15.0 mph 20.7 mph N/A   Clear
12:13 PM 46.8 °F - 32.2 °F 57% 30.00 in 10.0 mi NW 12.7 mph 19.6 mph N/A   Scattered Clouds
12:32 PM 47.7 °F - 32.2 °F 55% 30.00 in 10.0 mi NW 15.0 mph 21.9 mph N/A   Scattered Clouds
12:53 PM 47.8 °F - 31.6 °F 53% 29.99 in 10.0 mi North 12.7 mph - N/A   Scattered Clouds
1:13 PM 48.0 °F - 31.5 °F 53% 29.99 in 10.0 mi NNW 16.1 mph 24.2 mph N/A   Scattered Clouds
1:33 PM 48.4 °F - 31.1 °F 51% 29.99 in 10.0 mi NNW 12.7 mph 18.4 mph N/A   Scattered Clouds
1:53 PM 48.9 °F - 32.2 °F 52% 29.99 in 10.0 mi WNW 15.0 mph 18.4 mph N/A   Scattered Clouds
2:13 PM 49.5 °F - 31.1 °F 49% 29.99 in 10.0 mi North 11.5 mph 17.3 mph N/A   Scattered Clouds
2:33 PM 50.4 °F - 31.8 °F 49% 29.99 in 10.0 mi NW 11.5 mph 17.3 mph N/A   Clear
2:53 PM 50.7 °F - 31.6 °F 48% 29.99 in 10.0 mi WNW 12.7 mph 21.9 mph N/A   Scattered Clouds
3:13 PM 50.0 °F - 30.2 °F 47% 29.99 in 10.0 mi NNW 12.7 mph 20.7 mph N/A   Scattered Clouds
3:33 PM 49.5 °F - 30.0 °F 47% 29.98 in 10.0 mi WNW 16.1 mph - N/A   Scattered Clouds
3:53 PM 50.4 °F - 29.5 °F 45% 29.98 in 10.0 mi NW 12.7 mph 20.7 mph N/A   Mostly Cloudy
4:13 PM 51.1 °F - 27.1 °F 40% 29.98 in 10.0 mi NW 16.1 mph 20.7 mph N/A   Scattered Clouds
4:33 PM 50.5 °F - 27.9 °F 42% 29.98 in 10.0 mi WNW 9.2 mph 18.4 mph N/A   Scattered Clouds
4:53 PM 51.1 °F - 26.2 °F 38% 29.97 in 10.0 mi NW 12.7 mph 18.4 mph N/A   Scattered Clouds
5:13 PM 51.3 °F - 26.2 °F 38% 29.98 in 10.0 mi NNW 12.7 mph 16.1 mph N/A   Clear
5:33 PM 51.1 °F - 28.0 °F 41% 29.98 in 10.0 mi WNW 11.5 mph 17.3 mph N/A   Clear
5:53 PM 50.9 °F - 27.9 °F 41% 29.98 in 10.0 mi NW 10.4 mph 18.4 mph N/A   Scattered Clouds
6:13 PM 50.5 °F - 27.9 °F 42% 29.98 in 10.0 mi WNW 11.5 mph - N/A   Scattered Clouds
6:33 PM 50.4 °F - 28.0 °F 42% 29.99 in 10.0 mi NW 11.5 mph - N/A   Clear
6:52 PM 50.0 °F - 27.0 °F 41% 29.99 in 10.0 mi NW 8.1 mph - N/A   Clear
7:13 PM 49.1 °F - 28.2 °F 44% 29.99 in 10.0 mi NW 8.1 mph - N/A   Clear
7:53 PM 46.8 °F - 30.0 °F 52% 30.00 in 10.0 mi WNW 5.8 mph - N/A   Clear
8:13 PM 44.8 °F 42.4 °F 31.6 °F 60% 30.00 in 10.0 mi WNW 4.6 mph - N/A   Clear
8:33 PM 43.2 °F 40.5 °F 31.5 °F 63% 30.00 in 10.0 mi WNW 4.6 mph - N/A   Clear
8:43 PM 42.3 °F 40.5 °F 31.8 °F 67% 30.00 in 10.0 mi WNW 3.5 mph - N/A   Clear
9:13 PM 42.3 °F - 30.7 °F 64% 30.00 in 10.0 mi Calm Calm - N/A   Clear
9:32 PM 40.5 °F - 31.5 °F 70% 30.00 in 10.0 mi Calm Calm - N/A   Clear
9:51 PM 39.7 °F - 31.1 °F 71% 29.99 in 10.0 mi Calm Calm - N/A   Clear
10:12 PM 39.4 °F 36.1 °F 30.2 °F 70% 29.99 in 10.0 mi WSW 4.6 mph - N/A   Clear
10:33 PM 39.2 °F 37.0 °F 29.8 °F 69% 29.98 in 10.0 mi SW 3.5 mph - N/A   Clear
10:53 PM 38.5 °F 35.0 °F 29.7 °F 71% 29.98 in 10.0 mi SW 4.6 mph - N/A   Clear
11:13 PM 37.2 °F - 30.0 °F 75% 29.97 in 10.0 mi Calm Calm - N/A   Clear
11:32 PM 37.6 °F - 29.8 °F 74% 29.97 in 10.0 mi Calm Calm - N/A   Clear
11:53 PM 35.8 °F - 30.0 °F 80% 29.97 in 10.0 mi Calm Calm - N/A   Clear